TIME,DELAY(SENSOR),PRES,OXYGEN,RAWTEMP,T(OPTODE),TCPHASE,FLUOR,BETA(BETA700),BETA(BETA412),BETA(BETA440),CDOM,C(CSC),ED(ED411.90),ED(ED443.80),ED(ED489.40),ED(ED554.70),LU(LU412.20),LU(LU443.80),LU(LU489.40),LU(LU555.00),COMP,TILTX,TILTY,CHECK
1357342109,5807,859.7899780273438000,164.9163970947265600,425.9143981933594000,9.8113136291503900,39.0224800109863300,52,99,96,78,80,12393,2146961974,2147517613,2147288265,2147499200,2147092260,2146930907,2147704457,2147122093,899,-1,9,22489
1357345705,5803,976.0300292968750000,195.4468994140625000,500.5621948242187500,7.5120530128479000,38.1924285888671900,52,101,99,80,81,12367,2146963282,2147517376,2147298048,2147514788,2147091830,2146923949,2147717558,2147119067,183,-1,8,60209
1357349305,5810,990.6900024414062000,205.8818969726562500,508.7225036621094000,7.2586312294006350,37.6935997009277340,52,97,97,78,80,12369,2146962020,2147516992,2147296987,2147519296,2147088987,2146926134,2147716196,2147123163,70,0,8,7224
1357352905,5804,990.8599853515625000,206.7366027832031200,512.1810302734375000,7.1510868072509770,37.7037696838378900,52,101,97,81,81,12369,2146960740,2147519259,2147298313,2147517723,2147090395,2146923401,2147720594,2147122020,3401,-1,9,15271
1357356505,5807,991.1699829101562000,210.4035949707031200,514.2155761718750000,7.0877838134765625,37.5228309631347660,52,100,98,80,81,12369,2146962770,2147515968,2147301193,2147520155,2147092114,2146923483,2147720457,2147122386,130,0,9,12542
1357360105,5803,990.4899902343750000,209.7543945312500000,515.3488769531250000,7.0525069236755370,37.5808601379394500,52,99,96,79,81,12369,2146960932,2147518372,2147297042,2147516653,2147092900,2146920868,2147722148,2147120292,3555,-1,9,44567
1357363705,5805,989.2399902343750000,214.6627960205078000,517.5676879882812000,6.9834189414978030,37.3347206115722660,52,98,98,77,80,12369,2146964571,2147517138,2147296813,2147517504,2147091693,2146931483,2147721682,2147119131,3407,-1,9,26623
1357367305,5805,995.0800170898438000,215.1755065917968800,517.9351806640625000,6.9719758033752440,37.3112411499023440,52,98,97,80,80,12371,2146963355,2147519021,2147297828,2147520758,2147092032,2146925376,2147723044,2147121618,3135,-1,9,46294
1357370905,5805,993.9000244140625000,214.8679962158203000,518.0515747070312000,6.9683489799499510,37.3309097290039060,52,99,98,79,79,12363,2146963693,2147519515,2147303104,2147518116,2147089280,2146921179,2147724187,2147119716,3410,-1,9,12487
1357374505,5806,1000.5100097656250000,214.5352020263672000,517.1201171875000000,6.9973621368408200,37.3343315124511700,51,99,97,78,82,12369,2146962614,2147517449,2147300141,2147518326,2147091638,2146918473,2147723218,2147118198,3357,-1,9,56633
1357378105,5805,1002.7800292968750000,213.0442962646484400,515.9738159179688000,7.0330538749694820,37.3991699218750000,52,97,97,79,82,12365,2146960155,2147518601,2147296146,2147516388,2147091940,2146926317,2147720137,2147120731,2575,-1,9,40502
1357381705,5805,1001.5300292968750000,211.4720001220703000,516.5734252929688000,7.0143852233886720,37.5014801025390600,52,107,96,78,81,12368,2146963995,2147518866,2147299318,2147517668,2147091702,2146923830,2147721984,2147121600,3251,-1,9,35882
1357385305,5806,1000.7199707031250000,212.0825958251953000,516.5598144531250000,7.0148110389709470,37.4654388427734400,54,100,98,78,81,12365,2146959433,2147516333,2147300352,2147517805,2147094729,2146918774,2147724214,2147120429,3558,-1,9,17542
1357388905,5807,1007.0900268554688000,211.6954956054687500,515.0255737304688000,7.0625720024108890,37.4616394042968750,52,100,97,80,80,12362,2146965403,2147521810,2147297782,2147519936,2147092178,2146922669,2147721664,2147123090,310,-1,9,30308
1357392505,5808,1003.0000000000000000,211.2306976318359400,515.4437866210938000,7.0495529174804690,37.4954605102539060,52,99,98,78,81,12364,2146961947,2147520100,2147297152,2147519168,2147091876,2146920000,2147719332,2147120722,920,-1,9,43177
1357396105,5805,1002.1500244140625000,210.8397064208984400,517.1090698242188000,6.9977049827575680,37.5482711791992200,52,101,101,80,81,12361,2146963401,2147518509,2147295341,2147518875,2147090742,2146923730,2147719113,2147117394,407,-1,9,51966
1357399705,5807,1003.3900146484375000,213.0225067138672000,518.0485839843750000,6.9684410095214840,37.4374809265136700,52,99,97,78,81,12359,2146964388,2147517933,2147297600,2147518016,2147092443,2146924534,2147721993,2147120365,287,-1,8,53041
1357403305,5806,1000.5700073242188000,213.2763977050781200,518.5103149414062000,6.9540610313415530,37.4313011169433600,53,102,98,78,81,12358,2146960676,2147518912,2147295314,2147515666,2147092690,2146918665,2147721947,2147123812,118,-1,8,24212
1357406905,5810,997.8499755859375000,213.3842010498047000,520.3828125000000000,6.8957190513610840,37.4579811096191400,51,98,97,78,81,12358,2146961142,2147517677,2147296868,2147521197,2147092096,2146919058,2147725842,2147121828,90,-1,9,64970
1357410505,5807,997.1900024414062000,214.1199035644531200,521.0023803710938000,6.8764038085937500,37.4269905090332000,53,99,99,78,80,12358,2146964205,2147521170,2147300461,2147514697,2147088877,2146913152,2147726930,2147122523,266,-1,8,51635
1357414105,5809,1001.3099975585938000,214.4483947753906200,520.6900024414062000,6.8861432075500490,37.4019088745117200,53,101,98,79,81,12356,2146964818,2147518985,2147300123,2147518409,2147092882,2146920804,2147724315,2147119725,267,-1,8,10222
1357417705,5806,1003.1900024414062000,215.1990966796875000,518.5770263671875000,6.9519829750061035,37.3212509155273440,52,99,97,80,81,12358,2146964214,2147519241,2147301083,2147517778,2147089444,2146918518,2147724699,2147123538,1394,-1,9,17363
1357421305,5810,1002.6599731445312000,214.2019042968750000,518.1640014648438000,6.9648489952087400,37.3717689514160160,52,101,98,78,80,12360,2146963145,2147518409,2147299136,2147519817,2147090413,2146918034,2147722313,2147125001,66,-1,9,6227
1357424905,5807,1008.2800292968750000,212.9664001464843800,517.6320800781250000,6.9814171791076660,37.4337997436523440,51,102,99,78,81,12357,2146964361,2147517302,2147295625,2147518326,2147093293,2146920466,2147720585,2147124781,337,-1,9,55499
1357428505,5806,1004.0000000000000000,214.9170989990234400,518.4630737304688000,6.9555320739746090,37.3354110717773440,52,101,100,80,81,12358,2146962880,2147516196,2147298834,2147514834,2147088000,2146925257,2147722102,2147122944,2952,-1,9,45761
1357432105,5805,1004.9000244140625000,214.1315002441406200,519.9337158203125000,6.9097118377685550,37.4066696166992200,52,100,98,79,80,12353,2146964416,2147519808,2147298742,2147517878,2147091154,2146922285,2147725284,2147120566,3330,-1,9,56798
1357435705,5805,1008.9600219726562000,213.4622955322265600,517.9583740234375000,6.9712529182434080,37.4101600646972660,51,103,98,80,81,12353,2146961618,2147514386,2147298057,2147518006,2147091062,2146920228,2147720777,2147121179,3395,-1,9,10749
1357439305,5804,1002.2500000000000000,214.1623992919922000,520.0162963867188000,6.9071388244628910,37.4066505432128900,52,100,97,79,81,12354,2146964662,2147521124,2147297380,2147516205,2147092361,2146926089,2147724644,2147121947,2639,-1,9,60935
1357442905,5807,1001.8400268554688000,216.1723937988281200,520.6596069335938000,6.8870902061462400,37.3031387329101560,52,98,98,78,80,12326,2146960384,2147515529,2147299675,2147521344,2147087753,2146920100,2147724918,2147121645,3487,-1,9,17883
1357446505,5807,1003.8300170898438000,216.0549011230468800,520.2623291015625000,6.8994731903076170,37.3024482727050800,52,98,97,79,80,12321,2146962441,2147518610,2147298011,2147521709,2147092077,2146922770,2147723885,2147120813,3550,-1,9,63674
1357450105,5809,1003.2899780273438000,217.3706970214843800,521.6566772460938000,6.8560090065002440,37.2519493103027340,51,99,99,79,81,12320,2146961435,2147518153,2147298413,2147520027,2147090816,2146922934,2147722240,2147120100,835,-1,8,8937
1357453705,5804,1006.7700195312500000,216.6976013183593800,520.6364746093750000,6.8878111839294430,37.2722091674804700,51,98,98,79,82,12319,2146961956,2147518006,2147296877,2147519515,2147089408,2146924251,2147721490,2147120045,3360,-1,8,55302
1357457305,5805,1006.1500244140625000,216.2449951171875000,520.8494262695312000,6.8811740875244140,37.3017616271972660,52,101,98,79,80,12319,2146963355,2147521014,2147296850,2147520877,2147090185,2146920228,2147722944,2147123190,3377,-1,9,20924
1357460905,5806,1008.8699951171875000,215.9004058837890600,520.6312255859375000,6.8879771232604980,37.3174285888671900,52,100,101,79,80,12320,2146962861,2147516891,2147299693,2147514825,2147086756,2146920649,2147723977,2147122633,3366,-1,9,51509
1357464505,5805,1013.3900146484375000,214.2395935058593800,518.8560180664062000,6.9432911872863770,37.3821105957031250,52,99,98,79,80,12213,2146962532,2147518985,2147298852,2147514505,2147091785,2146924690,2147726765,2147119862,3557,-1,9,51729
1357468105,5806,1016.5999755859375000,212.0359039306640600,517.5294799804688000,6.9846119880676270,37.4859390258789060,52,103,99,83,81,12206,2146959552,2147519652,2147299657,2147519424,2147089545,2146923190,2147724516,2147119972,3401,-1,9,3225
1357471705,5805,1010.8400268554688000,211.4774932861328000,517.0927124023438000,6.9982137680053710,37.5107612609863300,52,103,99,80,80,12207,2146964068,2147517549,2147299035,2147517321,2147093019,2146925083,2147723026,2147123538,3383,-1,9,45458
1357475305,5805,1008.9400024414062000,210.9985046386718800,518.5847778320312000,6.9517378807067870,37.5645408630371100,52,105,97,79,80,12211,2146961728,2147515858,2147301019,2147516288,2147093019,2146927661,2147724443,2147121270,2962,-1,9,17233
1357478905,5806,1009.6099853515625000,214.3710021972656200,520.1477050781250000,6.9030442237854000,37.3967704772949200,53,100,98,79,81,12207,2146961472,2147516653,2147301074,2147518912,2147090386,2146917394,2147723968,2147122432,3530,-1,9,28295
1357482354,5804,1006.9000244140625000,215.0178070068359400,520.0720825195312000,6.9053997993469240,37.3585510253906250,52,103,98,79,81,12320,2146965421,2147517705,2147296704,2147521289,2147090432,2146929197,2147725787,2147121920,3064,-1,9,56618
